ORBCOMM FM111 [-] (40089 NORAD) Tracking and Keplerian Element Data

This shows tracking and keplerian element data for the satellite.

Feedback or suggestion? Click here.




ElementValue
Catalog40089
NameORBCOMM FM111 [-]
Epoch Orbit49223
Epoch Day238.87981444
Epoch Year2023
RAAN52.0852
Inclination47.0065
Eccentricity0.0034226
Argument of Perigee285.0078
Mean Anonmoly74.7029
Mean Motion14.79826556
Decay Rate1.823E-05
L11 40089U 14040D 23238.87981444 .00001823 00000+0 26438-3 0 9992
L22 40089 47.0065 52.0852 0034226 285.0078 74.7029 14.79826556492236



Live tracking and technical data element details for ORBCOMM FM111 [-] (NORAD 40089). ORBCOMM FM111 [-] can be tracked NOW for your location showing map with azimuth and elevation plus other details from your city location.







IsCatalogInMostPopularTable: catalog: 40089, numindb: 604
Update: records affected: 1



GetName: 40089 ORBCOMM FM111 [-]

Hit Count: updated at: Sat, 14 Mar 2026 02:35:20 GMT